Upstream stations:
Downstream station:
SHEF ID: SASO2 Little River near Sasakwa, OK
STATION TYPE:
Regulating: Stage = 26.00, Flow = 14115
STAGE RIV-FLOW BAT-LOAD
ft cfs volt
Ccp-Rev Ccp-Rev Ccp-Rev
(US/Central)
03/15 00:00 2.98 35 12.33
03/15 01:00 2.97 34 12.33
03/15 02:00 2.97 34 12.25
03/15 03:00 2.96 33 12.25
03/15 04:00 2.97 34 12.25
03/15 05:00 2.96 33 12.25
03/15 06:00 2.97 34 12.25
03/15 07:00 2.97 34 12.17
03/15 08:00 2.97 34 12.17
03/15 09:00 2.97 34 12.25
03/15 10:00 2.98 35 12.41
03/15 11:00 2.99 36 12.73
03/15 12:00 2.98 35 12.89
03/15 13:00 2.97 34 13.21
03/15 14:00 2.98 35 13.76
03/15 15:00 2.99 36 13.60
03/15 16:00 2.98 35 13.37
03/15 17:00 2.98 35 13.29
03/15 18:00 2.98 35 13.29
03/15 19:00 2.98 35 13.05
03/15 20:00 2.98 35 12.65
03/15 21:00 2.98 35 12.49
03/15 22:00 3.01 37 12.41
03/15 23:00 2.99 36 12.41